Location: Laura�t
(43.9341°N, 0.2497°E)
Time: 13:42:02
(UTC+00:00)

SPOT 3 Rocket - Pass Details

Date: 03 March 2021
Orbit: 778 x 795 km, 98.7° (Epoch: 14 April)

Event Time Altitude Azimuth Distance (km) Brightness Sun altitude
Exits shadow 20:18:41 46° 19° (NNE) 1,066 4.1 -27.2°
Drops below altitude 10° 20:22:31 10° 353° (N) 2,372 6.3 -27.9°
Sets 20:24:53 0° 350° (N) 3,307 7.2 -28.3°
